Weather History for LGLR - March, 2014

Change the Weather History Date:

Sunday, March 2, 2014

  Actual Average Record
Temperature  
Mean Temperature 53 °F -  
Max Temperature 60 °F 60 °F - ()
Min Temperature 46 °F 38 °F - ()
Degree Days  
Heating Degree Days 12    
Growing Degree Days 3 (Base 50)    
Moisture  
Dew Point 44 °F    
Average Humidity 76    
Maximum Humidity 100    
Minimum Humidity 34    
Precipitation  
Precipitation 0.00 in 0.05 in - ()
Sea Level Pressure  
Sea Level Pressure 29.52 in    
Wind  
Wind Speed 3 mph ()    
Max Wind Speed 16 mph    
Max Gust Speed -    
Visibility 4.5 miles    
Events Rain    
T = Trace of Precipitation, MM = Missing Value Source: Averaged Metar Reports

Daily Weather History Graph

Daily Weather History Graph

Search for Another Location

Airport or City:

Trip Planner

Search our weather history database for the weather conditions in past years. The results will help you decide how hot, cold, wet, or windy it might be!

Date:

Astronomy

Mar. 02, 2014 Rise Set
Actual Time 7:02 AM EET 6:23 PM EET
Civil Twilight 6:35 AM EET 6:50 PM EET
Nautical Twilight 6:04 AM EET 7:21 PM EET
Astronomical Twilight 5:32 AM EET 7:52 PM EET
Moon 7:22 AM EET (3/2) 7:57 PM EET (3/2)
Length of Visible Light 12h 15m
Length of Day
11h 20m
New Moon, 2% of the Moon is Illuminated
Mar 2
New Moon
Mar 8
First Quarter
Mar 16
Full
Mar 24
Last Quarter
Mar 30
New

Hourly Weather History & Observations

Time (EET) Temp. Windchill Dew Point Humidity Pressure Visibility Wind Dir Wind Speed Gust Speed Precip Events Conditions
12:50 AM 50.0 °F - 50.0 °F 100% 29.62 in 2.2 mi Calm Calm - N/A Rain Light Rain
1:50 AM 50.0 °F - 50.0 °F 100% 29.59 in 2.2 mi Calm Calm - N/A Rain Light Rain
2:00 AM 49 °F - 49 °F 100% 29.61 in 2 mi Calm Calm - - Rain Light Rain
2:50 AM 48.2 °F - 48.2 °F 100% 29.56 in 2.2 mi Calm Calm - N/A Rain Light Rain
3:50 AM 48.2 °F - 48.2 °F 100% 29.53 in 2.2 mi Calm Calm - N/A Rain Light Rain
4:50 AM 48.2 °F - 48.2 °F 100% 29.50 in 2.2 mi Calm Calm - N/A Rain Light Rain
5:00 AM 49 °F - 49 °F 98% 29.52 in 2 mi Calm Calm - - Rain Light Rain
5:50 AM 48.2 °F - 48.2 °F 100% 29.47 in 2.2 mi Calm Calm - N/A Rain Light Rain
6:50 AM 48.2 °F - 48.2 °F 100% 29.47 in 2.2 mi Calm Calm - N/A Rain Light Rain
7:50 AM 48.2 °F - 48.2 °F 100% 29.47 in 2.2 mi Calm Calm - N/A Rain Light Rain
8:00 AM 48 °F - 48 °F 100% 29.48 in 2 mi Calm Calm - - Rain Light Rain
8:50 AM 50.0 °F - 50.0 °F 100% 29.47 in 3.1 mi West 4.6 mph - N/A   Mostly Cloudy
9:50 AM 50.0 °F - 50.0 °F 100% 29.47 in 3.1 mi Calm Calm - N/A   Light Drizzle
10:50 AM 53.6 °F - 51.8 °F 94% 29.47 in 5.0 mi South 4.6 mph - N/A   Mostly Cloudy
11:00 AM 53 °F - 51 °F 91% 29.49 in 5 mi South 4.6 mph - -   Mist
11:50 AM 55.4 °F - 48.2 °F 77% 29.47 in 6.2 mi SSE 4.6 mph - N/A   Mostly Cloudy
12:50 PM 59.0 °F - 42.8 °F 55% 29.47 in 6.2 mi SSW 8.1 mph - N/A   Scattered Clouds
1:50 PM 59.0 °F - 42.8 °F 55% 29.47 in 6.2 mi SW 16.1 mph - N/A   Scattered Clouds
2:00 PM 58 °F - 42 °F 45% 29.48 in 6 mi SW 16.1 mph - -   Partly Cloudy
2:50 PM 60.8 °F - 39.2 °F 45% 29.47 in 6.2 mi SW 13.8 mph - N/A   Scattered Clouds
3:50 PM 59.0 °F - 39.2 °F 48% 29.50 in 6.2 mi SSW 12.7 mph - N/A   Scattered Clouds
4:50 PM 57.2 °F - 37.4 °F 48% 29.50 in 6.2 mi SSW 12.7 mph - N/A   Scattered Clouds
5:00 PM 58 °F - 37 °F 34% 29.52 in 6 mi SSW 12.7 mph - -   Partly Cloudy
5:50 PM 55.4 °F - 37.4 °F 51% 29.53 in 6.2 mi SSW 5.8 mph - N/A   Scattered Clouds
6:50 PM 53.6 °F - 33.8 °F 47% 29.53 in 6.2 mi SW 16.1 mph - N/A   Scattered Clouds
7:50 PM 51.8 °F - 33.8 °F 50% 29.56 in 6.2 mi West 5.8 mph - N/A   Partly Cloudy
8:00 PM 52 °F - 34 °F 38% 29.57 in 6 mi West 5.8 mph - -   Scattered Clouds
8:50 PM 46.4 °F 44.3 °F 37.4 °F 71% 29.56 in 6.2 mi SE 4.6 mph - N/A   Partly Cloudy
9:50 PM 48.2 °F - 37.4 °F 66% 29.59 in 6.2 mi South 5.8 mph - N/A   Scattered Clouds
10:50 PM 46.4 °F - 37.4 °F 71% 29.59 in 6.2 mi Calm Calm - N/A   Mostly Cloudy
11:00 PM 47 °F - 38 °F 60% 29.60 in 6 mi Calm Calm - -   Partly Cloudy
11:50 PM 46.4 °F - 39.2 °F 76% 29.59 in 6.2 mi Calm Calm - N/A   Mostly Cloudy